Location: Turtle Rock Observatory
(36.6913°N, 81.9708°W)
Time: 18:59:54
(UTC-04:00)

Daily predictions for brighter satellites

Satellite Brightness Start Highest point End
(mag) Time Altitude Azimuth Time Altitude Azimuth Time Altitude Azimuth
Cosmos 2333 Rocket 4.4 21:19:25 10° NE 21:20:20 10° NE 21:21:15 10° ENE
Cosmos 2151 3.7 21:17:30 10° SSE 21:21:18 34° E 21:25:07 10° NNE
Delta 2 Rocket 3.0 21:20:02 10° W 21:23:56 76° S 21:27:26 10° E
S3M 4.1 21:17:50 10° N 21:23:57 87° W 21:30:07 10° S
Cosmos 2228 Rocket 3.8 21:20:15 10° NNW 21:24:40 58° W 21:29:07 10° S
Hubble Space Telescope 2.7 21:23:50 10° SSW 21:25:54 13° SSE 21:27:57 10° SE
Cosmos 2058 4.2 21:22:46 10° SE 21:25:58 22° E 21:29:11 10° NE
H-2A R/B 3.2 21:22:25 10° S 21:26:13 62° W 21:29:59 10° NNW
Cosmos 2219 Rocket 4.0 21:29:14 10° NNE 21:32:41 16° NE 21:36:07 10° E
COSMOS 2428 3.7 21:27:59 10° N 21:33:03 32° ENE 21:37:58 11° ESE
Cosmos 1437 Rocket 2.8 21:33:56 10° N 21:37:46 81° W 21:41:38 10° S
deb Chang Zheng 4 3.6 21:34:18 10° NNE 21:38:36 63° ESE 21:42:54 10° S
Cosmos 1515 Rocket 4.0 21:36:59 10° NNW 21:41:21 63° W 21:45:40 10° S
Cosmos 304 Rocket 3.8 21:37:15 10° NNW 21:42:04 72° ENE 21:46:50 10° SSE
Cosmos 1726 4.0 21:39:39 10° NNE 21:42:10 17° ENE 21:44:08 12° ESE
Sich 1 4.4 21:40:21 11° SE 21:43:29 23° E 21:46:55 10° NE
SJ-11-01 4.3 21:39:24 10° SSE 21:44:05 85° ENE 21:48:51 10° NNW
Cosmos 1939 Rocket 2.9 21:43:41 10° SSE 21:47:33 63° ENE 21:51:25 10° N
Meteor 2-20 Rocket 4.5 21:43:01 10° S 21:49:11 88° E 21:55:21 10° N
Cosmos 1151 Rocket 3.0 21:45:24 10° N 21:49:44 89° E 21:54:05 10° S
Cosmos 1633 Rocket 4.2 21:47:00 13° SE 21:49:52 25° E 21:53:26 10° NE
CZ-4B R/B 4.4 21:47:04 10° NE 21:51:36 29° E 21:55:24 13° SSE
Cosmos 883 Rocket 4.5 21:46:15 10° N 21:52:27 78° E 21:58:34 10° S
DELTA 2 R/B (1) 3.7 21:49:27 10° WNW 21:54:56 62° SSW 21:59:15 16° SE
SPOT 5 3.2 21:51:23 14° SE 21:55:08 48° ENE 21:59:47 10° N
Meteor 1-4 Rocket 4.4 21:53:03 10° NNE 21:55:29 17° ENE 21:56:51 14° E
Cosmos 2219 3.4 21:55:07 10° SSW 22:00:52 78° WNW 22:06:39 10° NNE
Cosmos 1680 Rocket 3.7 21:59:13 10° NNW 22:04:28 75° WSW 22:09:18 12° S
Cosmos 405 4.1 22:02:37 10° NNW 22:06:06 44° W 22:09:31 10° SSW
Aureole 3 4.4 21:59:48 10° S 22:06:28 89° W 22:11:45 10° N
Cosmos 1805 Rocket 3.5 22:02:17 10° S 22:06:42 70° E 22:11:08 10° NNE
MetOp-B 4.4 22:03:02 17° SE 22:07:02 52° ENE 22:12:13 10° N
Cosmos 2237 Rocket 3.8 22:03:11 10° N 22:07:25 21° NE 22:10:50 13° E
Cosmos 1328 4.0 22:04:05 10° SSW 22:08:01 70° W 22:11:58 10° N
H-2A R/B 4.0 22:05:52 12° E 22:08:38 17° ENE 22:11:56 10° NNE
Cosmos 2322 4.3 22:07:17 10° NNW 22:12:52 56° WSW 22:18:02 12° S
Cosmos 1898 Rocket 3.4 22:08:43 10° S 22:13:51 69° ESE 22:19:02 10° NNE
Cosmos 1271 Rocket 3.9 22:12:26 10° NNE 22:15:49 28° ENE 22:17:01 23° ESE
Cosmos 220 Rocket 4.3 22:13:44 16° S 22:16:56 46° ESE 22:21:11 10° NNE
Cosmos 858 Rocket 4.4 22:12:00 10° S 22:17:09 67° ESE 22:22:19 10° NNE
Cosmos 2360 Rocket 2.9 22:11:58 10° NNW 22:17:24 49° WSW 22:22:32 11° S
NOSS 3-1 (A) 3.4 22:14:21 10° SSW 22:20:11 85° WNW 22:26:37 10° NNE
SPOT 1/Viking Rocket 3.9 22:17:51 23° SE 22:20:49 48° ENE 22:25:46 10° N
Cosmos 1626 3.9 22:21:47 17° E 22:21:47 17° E 22:24:07 10° NE
H-2A R/B 3.0 22:19:17 10° S 22:23:36 46° W 22:27:58 10° NNW
Cosmos 1703 3.8 22:23:37 30° SE 22:24:51 40° E 22:28:31 10° NNE
SL-14 R/B 3.2 22:23:01 18° S 22:25:55 84° E 22:29:57 10° N
Cosmos 2150 Rocket 4.1 22:21:38 10° SSW 22:27:04 87° WNW 22:32:35 10° NNE
Meteor 2-11 Rocket 4.4 22:21:08 10° N 22:27:17 74° E 22:31:28 21° SSE
Cosmos 2315 Rocket 4.1 22:22:00 10° N 22:28:12 77° W 22:33:35 14° S
Cosmos 1707 Rocket 3.5 22:23:50 10° N 22:28:13 87° E 22:30:45 25° S
YAOGAN 6 2.5 22:27:34 34° SSE 22:28:59 68° ENE 22:32:34 10° N
OTV 4 0.3 22:26:21 10° WSW 22:29:17 64° SSE 22:29:40 55° ESE
Cosmos 1666 Rocket 3.5 22:25:56 15° S 22:29:35 88° W 22:34:03 10° N
Cosmos 1241 Rocket 4.5 22:23:57 10° S 22:29:57 56° ESE 22:36:02 10° NE
Meteor 1-27 4.2 22:26:38 10° N 22:32:19 89° E 22:36:02 22° S
Terra 3.4 22:31:05 18° E 22:32:34 21° ENE 22:36:05 10° NNE
SL-08 RB Rocket 4.2 22:32:55 30° ESE 22:34:31 42° ENE 22:38:46 10° N
ATLAS 2AS CENTAUR R/B 3.0 22:35:09 10° S 22:42:15 56° ESE 22:49:59 10° NE
Cosmos 1470 Rocket 3.8 22:42:21 39° SE 22:43:22 48° E 22:47:32 10° NNE
Cosmos 2227 Rocket 2.2 22:39:38 19° S 22:43:42 61° ESE 22:49:17 10° NNE
Cosmos 1933 Rocket 3.9 22:43:16 38° SE 22:44:23 48° E 22:48:41 10° NNE
Nadezhda 1 Rocket 4.3 22:39:02 10° N 22:44:53 47° E 22:47:24 31° SE
ERBS 2.9 22:43:23 10° SW 22:46:51 61° NW 22:50:18 10° NE
Cosmos 1300 3.5 22:44:14 10° NNW 22:47:55 46° W 22:49:46 25° SSW
Envisat 4.3 22:45:26 12° SSW 22:49:43 35° W 22:54:21 10° NNW
Tiangong 1 3.0 22:47:07 10° WNW 22:49:53 29° N 22:52:17 12° NE
NOSS 0 Rocket 4.0 22:44:38 10° NNW 22:50:46 64° ENE 22:53:28 34° SE
OAO 2 Rocket 3.3 22:45:31 10° WSW 22:50:49 72° S 22:53:39 28° E
SL-08 R/B 4.4 22:46:40 20° S 22:51:11 86° E 22:57:30 10° N
ATLAS 3B R/B 3.9 22:49:31 10° NNW 22:55:39 31° NE 22:59:20 19° E
Cosmos 1745 Rocket 3.9 22:52:10 25° S 22:56:02 81° E 23:02:13 10° N
SL-16 R/B 3.6 22:57:49 10° N 23:02:31 26° ENE 23:04:25 22° E
USA 32 4.0 22:57:22 10° N 23:02:39 81° W 23:04:53 35° S
Lacrosse 4 Rocket 3.4 22:59:28 10° N 23:02:42 19° NE 23:03:42 18° ENE
Cosmos 2333 Rocket 2.2 22:59:53 10° NNW 23:05:39 72° ENE 23:07:32 43° SE
ARGOS 3.2 23:03:30 35° S 23:05:49 76° WSW 23:11:14 10° NNW
DMSP B5D2-2 4.3 23:00:54 10° NNE 23:05:58 49° E 23:06:46 45° SE
Delta 2 Rocket 3.8 23:02:48 10° W 23:05:23 38° WSW 23:05:23 38° WSW
Hubble Space Telescope 3.1 23:03:10 10° SW 23:03:43 13° SW 23:03:43 13° SW
CZ-4 R/B 4.1 23:02:27 10° N 23:07:20 68° WNW 23:10:05 25° SSW
Cosmos 1937 Rocket 4.3 23:04:27 10° SW 23:09:31 49° WNW 23:14:34 10° N
Cosmos 1455 2.3 23:06:29 10° N 23:10:08 61° ENE 23:10:08 61° ENE
Cosmos 2297 Rocket 2.1 23:07:58 36° S 23:10:21 71° ESE 23:15:59 10° NNE
COSMOS 2455 3.7 23:10:21 10° NNW 23:15:57 38° NE 23:17:55 30° E
Cosmos 1386 Rocket 4.3 23:13:36 37° S 23:16:08 85° E 23:22:10 10° N
Cosmos 990 Rocket 4.4 23:13:16 18° SW 23:17:00 60° WNW 23:22:06 10° N
Cosmos 2219 Rocket 2.3 23:11:35 10° NNW 23:17:09 68° WSW 23:18:54 44° S
COSMOS 2428 4.0 23:12:15 10° NW 23:17:13 32° WSW 23:20:00 21° SSW
Cosmos 1726 4.0 23:14:22 10° NW 23:17:30 25° W 23:18:49 20° WSW
Cosmos 192 4.3 23:16:11 10° NNW 23:21:06 66° ENE 23:21:44 59° ESE
CARTOSAT-1 3.4 23:25:07 76° ESE 23:25:16 78° ENE 23:29:36 10° N
Cosmos 1862 Rocket 3.4 23:22:58 10° N 23:27:19 81° W 23:27:33 77° SW
Meteor 1-4 Rocket 4.4 23:27:39 10° NW 23:30:40 24° W 23:31:14 23° WSW
Cosmos 2181 Rocket 4.2 23:32:16 10° N 23:38:34 58° E 23:39:48 50° ESE
Cosmos 1980 3.9 23:34:15 10° NNW 23:39:49 62° WSW 23:40:54 51° SSW
IGS 5A 3.6 23:43:40 70° WNW 23:43:40 70° WNW 23:47:33 10° NNW
NOSS 2-3 (C) 3.9 23:44:46 68° E 23:44:46 68° E 23:49:50 10° NE
SeaSat 1 4.3 23:43:30 18° ENE 23:44:39 20° NE 23:48:08 10° N
Cosmos 1869 3.9 23:41:13 10° NNW 23:44:53 55° WNW 23:44:53 55° WNW
Spot 2 4.3 23:40:27 10° N 23:45:30 80° WNW 23:46:03 69° SW
Cosmos 1269 Rocket 3.9 23:40:49 10° NNW 23:46:08 71° ENE 23:46:29 68° ESE
H-2A R/B 2.4 23:46:30 52° SW 23:47:28 61° W 23:52:51 10° NNW
FALCON 9 R/B 3.3 23:28:03 10° W 23:51:11 77° S 23:54:02 42° ESE
Cosmos 2237 Rocket 2.6 23:46:16 10° NNW 23:51:48 53° WSW 23:52:39 48° SW
Cosmos 1869 Rocket 4.0 23:53:42 57° NE 23:53:42 57° NE 23:57:24 10° NNE
Cosmos 1626 4.1 23:56:29 23° W 23:56:49 23° WNW 23:59:54 10° NNW
